Voltar ao catálogo

FENGYUN 1C DEB

AtivoSSO
NORAD 31351·DEBRIS·🇨🇳 China

Lançado May 10, 1999 de Taiyuan Satellite Launch Center

Loading…

Próximas Passagens (próximas 24 horas)

TLE

EnvelhecendoSource: Space-Track

Época: Sep 5, 2026, 09:43 UTC

1 31351U 99025BRF 26248.40521248  .00000253  00000-0  16954-3 0  9994
2 31351  98.8197 233.3839 0093256  21.8469 338.6637 14.07207152651257

Acompanhe FENGYUN 1C DEB em tempo real com AllMySat

Download on the App Store